| time (UTC) | temp F | wind direction | speed knots | gust knots | rain 1hr in | rain 24hr in | rain mn in | humidity % | barometer mb |
| 20260510033839 | 52 | 204 | 0.0 | 1.7 | 0.00 | 0.00 | 0.00 | 73 | 1014.6 |
| 20260510033336 | 52 | 211 | 0.0 | 0.9 | 0.00 | 0.00 | 0.00 | 72 | 1014.6 |
| 20260510032833 | 52 | 211 | 0.0 | 0.9 | 0.00 | 0.00 | 0.00 | 72 | 1014.6 |
| 20260510032330 | 53 | 211 | 0.9 | 0.9 | 0.00 | 0.00 | 0.00 | 71 | 1014.3 |
| 20260510031825 | 53 | 211 | 0.0 | 0.9 | 0.00 | 0.00 | 0.00 | 70 | 1014.6 |
| 20260510031320 | 53 | 211 | 0.0 | 0.9 | 0.00 | 0.00 | 0.00 | 69 | 1014.6 |
| 20260510030815 | 54 | 211 | 0.0 | 0.0 | 0.00 | 0.00 | 0.00 | 68 | 1014.5 |
| 20260510030311 | 54 | 211 | 0.0 | 1.7 | 0.00 | 0.00 | 0.00 | 68 | 1014.4 |
| 20260510025809 | 54 | 211 | 0.0 | 0.9 | 0.00 | 0.00 | 0.00 | 67 | 1014.4 |
| 20260510025306 | 55 | 210 | 0.0 | 0.9 | 0.00 | 0.00 | 0.00 | 67 | 1014.7 |
| 20260510024803 | 55 | 211 | 0.0 | 1.7 | 0.00 | 0.00 | 0.00 | 66 | 1014.3 |
| 20260510024300 | 55 | 210 | 0.9 | 1.7 | 0.00 | 0.00 | 0.00 | 65 | 1014.3 |
| 20260510023755 | 56 | 256 | 0.9 | 1.7 | 0.00 | 0.00 | 0.00 | 64 | 1014.3 |
| 20260510023253 | 56 | 256 | 0.0 | 1.7 | 0.00 | 0.00 | 0.00 | 64 | 1014.4 |
| 20260510022749 | 56 | 256 | 0.0 | 1.7 | 0.00 | 0.00 | 0.00 | 64 | 1014.3 |
| 20260510022249 | 56 | 256 | 0.0 | 0.9 | 0.00 | 0.00 | 0.00 | 63 | 1013.9 |
| 20260510021749 | 57 | 256 | 0.0 | 0.0 | 0.00 | 0.00 | 0.00 | 62 | 1014.0 |
| 20260510021247 | 57 | 256 | 0.0 | 1.7 | 0.00 | 0.00 | 0.00 | 61 | 1013.8 |
| 20260510020742 | 57 | 256 | 0.0 | 0.9 | 0.00 | 0.00 | 0.00 | 61 | 1013.7 |
| 20260510020242 | 57 | 256 | 0.0 | 0.9 | 0.00 | 0.00 | 0.00 | 61 | 1013.7 |
| 20260510015739 | 57 | 256 | 0.0 | 1.7 | 0.00 | 0.00 | 0.00 | 61 | 1013.5 |
| 20260510015235 | 58 | 256 | 0.9 | 0.9 | 0.00 | 0.00 | 0.00 | 60 | 1013.7 |
| 20260510014730 | 59 | 256 | 0.0 | 1.7 | 0.00 | 0.00 | 0.00 | 58 | 1013.4 |
| 20260510014228 | 60 | 256 | 1.7 | 1.7 | 0.00 | 0.00 | 0.00 | 55 | 1013.3 |
| 20260510013723 | 61 | 256 | 0.0 | 0.0 | 0.00 | 0.00 | 0.00 | 53 | 1013.2 |
| 20260510013219 | 61 | 256 | 0.0 | 0.0 | 0.00 | 0.00 | 0.00 | 53 | 1013.2 |
| 20260510012719 | 61 | 256 | 0.0 | 0.0 | 0.00 | 0.00 | 0.00 | 53 | 1013.1 |
| 20260510012214 | 61 | 256 | 0.0 | 0.0 | 0.00 | 0.00 | 0.00 | 52 | 1013.1 |
| 20260510011709 | 62 | 256 | 0.0 | 0.9 | 0.00 | 0.00 | 0.00 | 52 | 1013.0 |
| 20260510011205 | 62 | 256 | 0.0 | 0.0 | 0.00 | 0.00 | 0.00 | 52 | 1013.0 |
| 20260510010701 | 62 | 256 | 0.0 | 0.9 | 0.00 | 0.00 | 0.00 | 52 | 1013.1 |
| 20260510010158 | 62 | 256 | 0.0 | 0.0 | 0.00 | 0.00 | 0.00 | 52 | 1013.0 |
| 20260510005655 | 62 | 256 | 0.0 | 1.7 | 0.00 | 0.00 | 0.00 | 51 | 1012.7 |
| 20260510005151 | 63 | 256 | 0.0 | 0.9 | 0.00 | 0.00 | 0.00 | 50 | 1012.5 |
| 20260510004650 | 64 | 256 | 0.0 | 0.9 | 0.00 | 0.00 | 0.00 | 48 | 1012.7 |
| 20260510004147 | 64 | 256 | 0.0 | 1.7 | 0.00 | 0.00 | 0.00 | 47 | 1012.6 |
| 20260510003645 | 65 | 256 | 1.7 | 2.6 | 0.00 | 0.00 | 0.00 | 47 | 1012.5 |
| 20260510003140 | 65 | 256 | 1.7 | 2.6 | 0.00 | 0.00 | 0.00 | 46 | 1012.2 |
| 20260510002635 | 65 | 256 | 2.6 | 3.5 | 0.00 | 0.00 | 0.00 | 45 | 1012.0 |
| 20260510002132 | 65 | 248 | 2.6 | 3.5 | 0.00 | 0.00 | 0.00 | 45 | 1012.0 |
| 20260510001628 | 66 | 248 | 3.5 | 3.5 | 0.00 | 0.00 | 0.00 | 45 | 1011.8 |
| 20260510001128 | 66 | 245 | 1.7 | 2.6 | 0.00 | 0.00 | 0.00 | 44 | 1011.9 |
| 20260510000627 | 66 | 243 | 2.6 | 2.6 | 0.00 | 0.00 | 0.00 | 44 | 1011.6 |
| 20260510000125 | 67 | 242 | 1.7 | 2.6 | 0.00 | 0.00 | 0.00 | 43 | 1011.9 |
| 20260509235621 | 67 | 250 | 2.6 | 5.2 | 0.00 | 0.00 | 0.00 | 42 | 1011.6 |
| 20260509235118 | 68 | 250 | 3.5 | 3.5 | 0.00 | 0.00 | 0.00 | 42 | 1011.7 |
| 20260509234614 | 69 | 250 | 2.6 | 5.2 | 0.00 | 0.00 | 0.00 | 41 | 1011.7 |
| 20260509234112 | 70 | 251 | 3.5 | 3.5 | 0.00 | 0.00 | 0.00 | 40 | 1011.7 |
| 20260509233609 | 70 | 249 | 3.5 | 3.5 | 0.00 | 0.00 | 0.00 | 40 | 1011.7 |
| 20260509233106 | 71 | 263 | 3.5 | 3.5 | 0.00 | 0.00 | 0.00 | 40 | 1011.7 |
| 20260509232603 | 70 | 267 | 3.5 | 6.1 | 0.00 | 0.00 | 0.00 | 40 | 1011.7 |
| 20260509232100 | 71 | 269 | 3.5 | 7.0 | 0.00 | 0.00 | 0.00 | 39 | 1011.8 |
| 20260509231556 | 72 | 268 | 3.5 | 5.2 | 0.00 | 0.00 | 0.00 | 39 | 1011.7 |
| 20260509231054 | 73 | 277 | 2.6 | 2.6 | 0.00 | 0.00 | 0.00 | 39 | 1011.7 |
| 20260509230550 | 72 | 258 | 1.7 | 3.5 | 0.00 | 0.00 | 0.00 | 37 | 1011.7 |
| 20260509230048 | 73 | 289 | 3.5 | 6.1 | 0.00 | 0.00 | 0.00 | 37 | 1011.7 |
| 20260509225543 | 73 | 298 | 1.7 | 5.2 | 0.00 | 0.00 | 0.00 | 38 | 1011.7 |
| 20260509225039 | 72 | 281 | 1.7 | 2.6 | 0.00 | 0.00 | 0.00 | 38 | 1011.8 |
| 20260509224535 | 72 | 286 | 4.3 | 5.2 | 0.00 | 0.00 | 0.00 | 38 | 1011.6 |
| 20260509224032 | 71 | 252 | 3.5 | 3.5 | 0.00 | 0.00 | 0.00 | 38 | 1011.6 |
| 20260509223529 | 71 | 274 | 1.7 | 5.2 | 0.00 | 0.00 | 0.00 | 39 | 1011.6 |
| 20260509223027 | 70 | 271 | 3.5 | 3.5 | 0.00 | 0.00 | 0.00 | 39 | 1011.7 |
| 20260509222522 | 71 | 231 | 3.5 | 3.5 | 0.00 | 0.00 | 0.00 | 38 | 1011.6 |
| 20260509222018 | 70 | 265 | 1.7 | 2.6 | 0.00 | 0.00 | 0.00 | 39 | 1011.6 |
| 20260509221514 | 71 | 265 | 1.7 | 3.5 | 0.00 | 0.00 | 0.00 | 38 | 1011.6 |
| 20260509221010 | 71 | 284 | 2.6 | 3.5 | 0.00 | 0.00 | 0.00 | 37 | 1011.5 |
| 20260509220506 | 71 | 284 | 1.7 | 5.2 | 0.00 | 0.00 | 0.00 | 38 | 1011.6 |
| 20260509220003 | 71 | 273 | 1.7 | 7.0 | 0.00 | 0.00 | 0.00 | 36 | 1011.4 |
| 20260509215458 | 72 | 271 | 2.6 | 6.1 | 0.00 | 0.00 | 0.00 | 36 | 1011.4 |
| 20260509214956 | 71 | 265 | 2.6 | 2.6 | 0.00 | 0.00 | 0.00 | 37 | 1011.4 |
| 20260509214453 | 71 | 256 | 4.3 | 7.0 | 0.00 | 0.00 | 0.00 | 36 | 1011.4 |
| 20260509213949 | 71 | 245 | 2.6 | 5.2 | 0.00 | 0.00 | 0.00 | 35 | 1011.5 |
| 20260509213445 | 72 | 268 | 5.2 | 7.0 | 0.00 | 0.00 | 0.00 | 35 | 1011.4 |
| 20260509212943 | 72 | 237 | 2.6 | 2.6 | 0.00 | 0.00 | 0.00 | 35 | 1011.4 |
| 20260509212440 | 73 | 263 | 2.6 | 3.5 | 0.00 | 0.00 | 0.00 | 34 | 1011.2 |
| 20260509211936 | 72 | 264 | 1.7 | 3.5 | 0.00 | 0.00 | 0.00 | 35 | 1011.2 |
| 20260509211432 | 72 | 266 | 1.7 | 2.6 | 0.00 | 0.00 | 0.00 | 36 | 1010.9 |
| 20260509210928 | 71 | 269 | 1.7 | 2.6 | 0.00 | 0.00 | 0.00 | 36 | 1011.1 |
| 20260509210426 | 71 | 270 | 1.7 | 7.8 | 0.00 | 0.00 | 0.00 | 35 | 1010.7 |
| 20260509205921 | 71 | 243 | 1.7 | 2.6 | 0.00 | 0.00 | 0.00 | 35 | 1011.0 |
| 20260509205420 | 71 | 240 | 2.6 | 3.5 | 0.00 | 0.00 | 0.00 | 34 | 1010.6 |
| 20260509204917 | 71 | 240 | 3.5 | 7.0 | 0.00 | 0.00 | 0.00 | 34 | 1010.7 |
| 20260509204413 | 73 | 234 | 3.5 | 5.2 | 0.00 | 0.00 | 0.00 | 33 | 1010.6 |
| 20260509203910 | 72 | 255 | 2.6 | 7.0 | 0.00 | 0.00 | 0.00 | 34 | 1010.7 |
| 20260509203406 | 72 | 257 | 4.3 | 7.0 | 0.00 | 0.00 | 0.00 | 34 | 1010.7 |
| 20260509202904 | 74 | 240 | 4.3 | 7.0 | 0.00 | 0.00 | 0.00 | 33 | 1010.6 |
| 20260509202359 | 73 | 250 | 2.6 | 3.5 | 0.00 | 0.00 | 0.00 | 34 | 1010.5 |
| 20260509201854 | 72 | 243 | 2.6 | 3.5 | 0.00 | 0.00 | 0.00 | 34 | 1010.5 |
| 20260509201350 | 72 | 241 | 3.5 | 5.2 | 0.00 | 0.00 | 0.00 | 33 | 1010.4 |
| 20260509200847 | 74 | 241 | 3.5 | 6.1 | 0.00 | 0.00 | 0.00 | 33 | 1010.3 |
| 20260509200342 | 75 | 240 | 4.3 | 5.2 | 0.00 | 0.00 | 0.00 | 31 | 1010.4 |
| 20260509195839 | 77 | 237 | 3.5 | 8.7 | 0.00 | 0.00 | 0.00 | 30 | 1010.3 |
| 20260509195339 | 77 | 242 | 4.3 | 6.1 | 0.00 | 0.00 | 0.00 | 30 | 1010.5 |
| 20260509194839 | 77 | 307 | 1.7 | 5.2 | 0.00 | 0.00 | 0.00 | 32 | 1010.4 |
| 20260509194335 | 76 | 232 | 3.5 | 3.5 | 0.00 | 0.00 | 0.00 | 32 | 1010.5 |
| 20260509193833 | 73 | 276 | 1.7 | 1.7 | 0.00 | 0.00 | 0.00 | 36 | 1010.7 |
| 20260509193332 | 73 | 346 | 2.6 | 7.0 | 0.00 | 0.00 | 0.00 | 36 | 1010.5 |
| 20260509192828 | 72 | 101 | 0.0 | 1.7 | 0.00 | 0.00 | 0.00 | 42 | 1010.7 |
| 20260509192320 | 70 | 101 | 1.7 | 2.6 | 0.00 | 0.00 | 0.00 | 42 | 1010.7 |
| 20260509191814 | 70 | 101 | 0.0 | 0.0 | 0.00 | 0.00 | 0.00 | 40 | 1011.0 |
| 20260509191311 | 70 | 214 | 0.9 | 2.6 | 0.00 | 0.00 | 0.00 | 42 | 1011.0 |
| 20260509190806 | 70 | 213 | 0.9 | 1.7 | 0.00 | 0.00 | 0.00 | 42 | 1011.2 |
| 20260509190304 | 71 | 213 | 1.7 | 1.7 | 0.00 | 0.00 | 0.00 | 41 | 1011.0 |
| 20260509185802 | 71 | 214 | 1.7 | 2.6 | 0.00 | 0.00 | 0.00 | 42 | 1011.1 |
| 20260509185257 | 71 | 235 | 1.7 | 5.2 | 0.00 | 0.00 | 0.00 | 40 | 1011.3 |
| 20260509184755 | 72 | 242 | 3.5 | 6.1 | 0.00 | 0.00 | 0.00 | 40 | 1011.3 |
| 20260509184253 | 71 | 280 | 0.0 | 2.6 | 0.00 | 0.00 | 0.00 | 44 | 1011.3 |
| 20260509183749 | 71 | 285 | 5.2 | 6.1 | 0.00 | 0.00 | 0.00 | 42 | 1011.4 |
| 20260509183244 | 72 | 307 | 3.5 | 6.1 | 0.00 | 0.00 | 0.00 | 42 | 1011.5 |
| 20260509182739 | 72 | 310 | 5.2 | 7.0 | 0.00 | 0.00 | 0.00 | 41 | 1011.7 |
| 20260509182238 | 73 | 358 | 0.9 | 2.6 | 0.00 | 0.00 | 0.00 | 39 | 1011.5 |
| 20260509181734 | 71 | 359 | 0.9 | 0.9 | 0.00 | 0.00 | 0.00 | 42 | 1011.7 |
| 20260509181232 | 70 | 359 | 1.7 | 2.6 | 0.00 | 0.00 | 0.00 | 45 | 1011.7 |
| 20260509180729 | 68 | 359 | 1.7 | 1.7 | 0.00 | 0.00 | 0.00 | 45 | 1011.7 |
| 20260509180226 | 69 | 359 | 0.9 | 0.9 | 0.00 | 0.00 | 0.00 | 47 | 1012.0 |
| 20260509175722 | 68 | 359 | 0.9 | 2.6 | 0.00 | 0.00 | 0.00 | 47 | 1011.9 |
| 20260509175218 | 68 | 359 | 0.0 | 0.9 | 0.00 | 0.00 | 0.00 | 47 | 1012.2 |
| 20260509174714 | 67 | 359 | 0.9 | 0.9 | 0.00 | 0.00 | 0.00 | 50 | 1012.3 |
| 20260509174209 | 66 | 359 | 1.7 | 1.7 | 0.00 | 0.00 | 0.00 | 52 | 1012.3 |
| 20260509173705 | 65 | 359 | 0.0 | 0.0 | 0.00 | 0.00 | 0.00 | 55 | 1012.5 |
| 20260509173201 | 63 | 359 | 0.0 | 0.0 | 0.00 | 0.00 | 0.00 | 59 | 1012.9 |
| 20260509172657 | 62 | 358 | 0.0 | 0.9 | 0.00 | 0.00 | 0.00 | 59 | 1012.9 |
| 20260509172154 | 61 | 358 | 0.9 | 1.7 | 0.00 | 0.00 | 0.00 | 60 | 1012.9 |
| 20260509171649 | 61 | 358 | 0.0 | 0.9 | 0.00 | 0.00 | 0.00 | 61 | 1012.9 |
| 20260509171145 | 61 | 359 | 0.9 | 0.9 | 0.00 | 0.00 | 0.00 | 61 | 1012.9 |
| 20260509170643 | 60 | 358 | 0.9 | 0.9 | 0.00 | 0.00 | 0.00 | 63 | 1012.6 |
| 20260509170138 | 60 | 358 | 0.9 | 1.7 | 0.00 | 0.00 | 0.00 | 64 | 1012.4 |
| 20260509165637 | 60 | 358 | 1.7 | 2.6 | 0.00 | 0.00 | 0.00 | 65 | 1012.4 |
| 20260509165133 | 61 | 358 | 3.5 | 3.5 | 0.00 | 0.00 | 0.00 | 60 | 1012.5 |
| 20260509164629 | 63 | 312 | 6.1 | 7.8 | 0.00 | 0.00 | 0.00 | 54 | 1012.4 |
| 20260509164125 | 65 | 355 | 2.6 | 5.2 | 0.00 | 0.00 | 0.00 | 49 | 1012.4 |
| 20260509163623 | 65 | 243 | 0.9 | 1.7 | 0.00 | 0.00 | 0.00 | 49 | 1012.3 |
| 20260509163118 | 65 | 243 | 1.7 | 1.7 | 0.00 | 0.00 | 0.00 | 47 | 1012.3 |
| 20260509162615 | 66 | 224 | 0.0 | 0.9 | 0.00 | 0.00 | 0.00 | 45 | 1012.2 |
| 20260509162111 | 66 | 224 | 0.9 | 1.7 | 0.00 | 0.00 | 0.00 | 46 | 1012.3 |
| 20260509161603 | 66 | 224 | 0.9 | 1.7 | 0.00 | 0.00 | 0.00 | 44 | 1012.3 |
| 20260509161102 | 66 | 239 | 0.0 | 1.7 | 0.00 | 0.00 | 0.00 | 45 | 1012.2 |
| 20260509160559 | 67 | 295 | 1.7 | 3.5 | 0.00 | 0.00 | 0.00 | 44 | 1012.3 |
| 20260509160054 | 68 | 220 | 0.0 | 0.9 | 0.00 | 0.00 | 0.00 | 44 | 1012.4 |
| 20260509155550 | 68 | 235 | 0.9 | 2.6 | 0.00 | 0.00 | 0.00 | 43 | 1012.3 |
| 20260509155047 | 67 | 232 | 0.0 | 1.7 | 0.00 | 0.00 | 0.00 | 45 | 1012.3 |
| 20260509154543 | 67 | 267 | 0.9 | 1.7 | 0.00 | 0.00 | 0.00 | 46 | 1012.2 |
| 20260509154041 | 67 | 94 | 0.9 | 3.5 | 0.00 | 0.00 | 0.00 | 46 | 1012.4 |
| 20260509153538 | 66 | 322 | 0.0 | 0.9 | 0.00 | 0.00 | 0.00 | 48 | 1012.5 |
| 20260509153034 | 65 | 238 | 0.9 | 5.2 | 0.00 | 0.00 | 0.00 | 49 | 1012.6 |
| 20260509152530 | 66 | 85 | 1.7 | 2.6 | 0.00 | 0.00 | 0.00 | 47 | 1012.3 |
| 20260509152027 | 66 | 132 | 0.9 | 1.7 | 0.00 | 0.00 | 0.00 | 46 | 1012.3 |
| 20260509151523 | 66 | 100 | 0.9 | 1.7 | 0.00 | 0.00 | 0.00 | 48 | 1012.3 |
| 20260509151021 | 66 | 104 | 1.7 | 5.2 | 0.00 | 0.00 | 0.00 | 48 | 1012.3 |
| 20260509150518 | 67 | 151 | 1.7 | 1.7 | 0.00 | 0.00 | 0.00 | 45 | 1012.6 |
| 20260509150017 | 67 | 147 | 0.0 | 0.9 | 0.00 | 0.00 | 0.00 | 48 | 1012.6 |
| 20260509145512 | 66 | 147 | 2.6 | 2.6 | 0.00 | 0.00 | 0.00 | 46 | 1012.6 |
| 20260509145007 | 68 | 110 | 0.0 | 1.7 | 0.00 | 0.00 | 0.00 | 46 | 1012.5 |
| 20260509144505 | 67 | 109 | 1.7 | 3.5 | 0.00 | 0.00 | 0.00 | 46 | 1012.3 |
| 20260509144001 | 66 | 123 | 1.7 | 1.7 | 0.00 | 0.00 | 0.00 | 47 | 1012.5 |
| 20260509143458 | 66 | 123 | 0.9 | 0.9 | 0.00 | 0.00 | 0.00 | 46 | 1012.4 |
| 20260509142950 | 66 | 122 | 0.9 | 5.2 | 0.00 | 0.00 | 0.00 | 47 | 1012.5 |
| 20260509142446 | 66 | 74 | 2.6 | 5.2 | 0.00 | 0.00 | 0.00 | 48 | 1012.6 |
| 20260509141942 | 66 | 104 | 1.7 | 5.2 | 0.00 | 0.00 | 0.00 | 48 | 1012.7 |
| 20260509141439 | 67 | 332 | 0.9 | 2.6 | 0.00 | 0.00 | 0.00 | 49 | 1012.6 |
| 20260509140936 | 65 | 96 | 1.7 | 3.5 | 0.00 | 0.00 | 0.00 | 50 | 1013.0 |
| 20260509140432 | 65 | 119 | 1.7 | 7.0 | 0.00 | 0.00 | 0.00 | 52 | 1013.1 |
| 20260509135931 | 64 | 220 | 1.7 | 3.5 | 0.00 | 0.00 | 0.00 | 52 | 1013.1 |
| 20260509135427 | 63 | 201 | 0.9 | 1.7 | 0.00 | 0.00 | 0.00 | 53 | 1013.2 |
| 20260509134924 | 62 | 105 | 2.6 | 5.2 | 0.00 | 0.00 | 0.00 | 55 | 1013.1 |
| 20260509134422 | 61 | 129 | 0.9 | 1.7 | 0.00 | 0.00 | 0.00 | 56 | 1013.1 |
| 20260509133919 | 61 | 164 | 0.9 | 2.6 | 0.00 | 0.00 | 0.00 | 57 | 1013.5 |
| 20260509133416 | 60 | 157 | 0.9 | 1.7 | 0.00 | 0.00 | 0.00 | 59 | 1013.6 |
| 20260509132914 | 59 | 197 | 0.0 | 1.7 | 0.00 | 0.00 | 0.00 | 59 | 1013.7 |
| 20260509132412 | 59 | 221 | 0.0 | 0.0 | 0.00 | 0.00 | 0.00 | 59 | 1013.7 |
| 20260509131909 | 58 | 221 | 0.0 | 0.0 | 0.00 | 0.00 | 0.00 | 60 | 1013.6 |
| 20260509131406 | 57 | 221 | 0.9 | 1.7 | 0.00 | 0.00 | 0.00 | 60 | 1013.7 |
| 20260509130902 | 56 | 221 | 0.0 | 2.6 | 0.00 | 0.00 | 0.00 | 61 | 1013.7 |
| 20260509130357 | 56 | 230 | 0.0 | 0.9 | 0.00 | 0.00 | 0.00 | 62 | 1013.6 |
| 20260509125855 | 55 | 230 | 0.9 | 1.7 | 0.00 | 0.00 | 0.00 | 62 | 1013.8 |
| 20260509125351 | 55 | 230 | 0.9 | 1.7 | 0.00 | 0.00 | 0.00 | 62 | 1013.7 |
| 20260509124847 | 54 | 230 | 0.9 | 0.9 | 0.00 | 0.00 | 0.00 | 63 | 1013.4 |
| 20260509124344 | 54 | 230 | 0.9 | 0.9 | 0.00 | 0.00 | 0.00 | 64 | 1013.4 |
| 20260509123843 | 54 | 230 | 0.9 | 1.7 | 0.00 | 0.00 | 0.00 | 64 | 1013.6 |
| 20260509123340 | 54 | 230 | 0.9 | 0.9 | 0.00 | 0.00 | 0.00 | 64 | 1013.3 |
| 20260509122835 | 54 | 230 | 0.0 | 0.9 | 0.00 | 0.00 | 0.00 | 66 | 1013.3 |
| 20260509122332 | 53 | 230 | 0.0 | 0.9 | 0.00 | 0.00 | 0.00 | 67 | 1013.5 |
| 20260509121829 | 53 | 230 | 0.9 | 0.9 | 0.00 | 0.00 | 0.00 | 64 | 1013.5 |
| 20260509121326 | 52 | 230 | 0.0 | 0.0 | 0.00 | 0.00 | 0.00 | 64 | 1013.4 |
| 20260509120824 | 52 | 230 | 0.9 | 0.9 | 0.00 | 0.00 | 0.00 | 67 | 1013.5 |
| 20260509120322 | 52 | 230 | 0.0 | 0.0 | 0.00 | 0.00 | 0.00 | 67 | 1013.6 |
| 20260509115820 | 52 | 230 | 0.0 | 0.0 | 0.00 | 0.00 | 0.00 | 66 | 1013.6 |
| 20260509115316 | 52 | 230 | 0.0 | 0.9 | 0.00 | 0.00 | 0.00 | 63 | 1013.6 |
| 20260509114814 | 52 | 230 | 0.9 | 0.9 | 0.00 | 0.00 | 0.00 | 63 | 1013.6 |
| 20260509114313 | 52 | 230 | 0.9 | 1.7 | 0.00 | 0.00 | 0.00 | 63 | 1013.6 |
| 20260509113812 | 52 | 230 | 0.0 | 0.9 | 0.00 | 0.00 | 0.00 | 63 | 1013.6 |
| 20260509113308 | 51 | 230 | 0.9 | 2.6 | 0.00 | 0.00 | 0.00 | 63 | 1013.4 |
| 20260509112805 | 51 | 196 | 0.0 | 0.9 | 0.00 | 0.00 | 0.00 | 63 | 1013.7 |
| 20260509112306 | 51 | 197 | 0.0 | 0.9 | 0.00 | 0.00 | 0.00 | 63 | 1013.7 |
| 20260509111759 | 51 | 197 | 0.0 | 0.0 | 0.00 | 0.00 | 0.00 | 64 | 1013.4 |
| 20260509111256 | 51 | 197 | 0.0 | 0.0 | 0.00 | 0.00 | 0.00 | 64 | 1013.8 |
| 20260509110754 | 51 | 196 | 0.0 | 0.0 | 0.00 | 0.00 | 0.00 | 64 | 1013.4 |
| 20260509110250 | 51 | 196 | 0.0 | 0.0 | 0.00 | 0.00 | 0.00 | 64 | 1013.7 |
| 20260509105748 | 51 | 197 | 0.0 | 0.0 | 0.00 | 0.00 | 0.00 | 64 | 1013.7 |
| 20260509105245 | 51 | 196 | 0.0 | 0.9 | 0.00 | 0.00 | 0.00 | 63 | 1013.7 |
| 20260509104742 | 51 | 197 | 0.0 | 0.9 | 0.00 | 0.00 | 0.00 | 64 | 1013.3 |
| 20260509104239 | 51 | 196 | 0.0 | 0.9 | 0.00 | 0.00 | 0.00 | 63 | 1013.4 |
| 20260509103737 | 51 | 197 | 0.0 | 0.9 | 0.00 | 0.00 | 0.00 | 63 | 1013.6 |
| 20260509103234 | 50 | 197 | 0.0 | 0.9 | 0.00 | 0.00 | 0.00 | 63 | 1013.4 |
| 20260509102732 | 50 | 196 | 0.9 | 0.9 | 0.00 | 0.00 | 0.00 | 64 | 1013.6 |
| 20260509102228 | 51 | 197 | 0.0 | 0.9 | 0.00 | 0.00 | 0.00 | 63 | 1013.6 |
| 20260509101719 | 51 | 197 | 0.0 | 1.7 | 0.00 | 0.00 | 0.00 | 63 | 1013.5 |
| 20260509101216 | 51 | 196 | 0.9 | 0.9 | 0.00 | 0.00 | 0.00 | 62 | 1013.5 |
| 20260509100713 | 51 | 196 | 0.0 | 0.9 | 0.00 | 0.00 | 0.00 | 62 | 1013.4 |
| 20260509100210 | 51 | 197 | 0.9 | 1.7 | 0.00 | 0.00 | 0.00 | 62 | 1013.5 |
| 20260509095707 | 51 | 196 | 0.9 | 1.7 | 0.00 | 0.00 | 0.00 | 61 | 1013.7 |
| 20260509095205 | 51 | 223 | 0.9 | 2.6 | 0.00 | 0.00 | 0.00 | 61 | 1013.8 |
| 20260509094701 | 51 | 221 | 0.9 | 1.7 | 0.00 | 0.00 | 0.00 | 61 | 1013.6 |
| 20260509094158 | 51 | 216 | 1.7 | 2.6 | 0.00 | 0.00 | 0.00 | 61 | 1013.5 |
| 20260509093656 | 52 | 218 | 1.7 | 2.6 | 0.00 | 0.00 | 0.00 | 61 | 1013.6 |
| 20260509093153 | 52 | 205 | 2.6 | 3.5 | 0.00 | 0.00 | 0.00 | 60 | 1013.7 |
| 20260509092651 | 52 | 206 | 1.7 | 3.5 | 0.00 | 0.00 | 0.00 | 60 | 1013.5 |
| 20260509092149 | 52 | 207 | 2.6 | 2.6 | 0.00 | 0.00 | 0.00 | 60 | 1013.6 |
| 20260509091647 | 52 | 207 | 1.7 | 3.5 | 0.00 | 0.00 | 0.00 | 60 | 1013.8 |
| 20260509091142 | 52 | 207 | 0.9 | 2.6 | 0.00 | 0.00 | 0.00 | 60 | 1013.9 |
| 20260509090640 | 52 | 207 | 1.7 | 1.7 | 0.00 | 0.00 | 0.00 | 60 | 1013.7 |
| 20260509090137 | 52 | 207 | 0.9 | 1.7 | 0.00 | 0.00 | 0.00 | 61 | 1013.6 |
| 20260509085635 | 52 | 207 | 0.0 | 1.7 | 0.00 | 0.00 | 0.00 | 60 | 1013.6 |
| 20260509085130 | 52 | 205 | 1.7 | 1.7 | 0.00 | 0.00 | 0.00 | 60 | 1013.9 |
| 20260509084628 | 52 | 205 | 0.9 | 1.7 | 0.00 | 0.00 | 0.00 | 60 | 1013.7 |
| 20260509084125 | 52 | 205 | 0.0 | 0.9 | 0.00 | 0.00 | 0.00 | 60 | 1013.6 |
| 20260509083622 | 51 | 205 | 0.9 | 1.7 | 0.00 | 0.00 | 0.00 | 61 | 1013.6 |
| 20260509083118 | 51 | 205 | 1.7 | 1.7 | 0.00 | 0.00 | 0.00 | 61 | 1014.0 |
| 20260509082616 | 51 | 198 | 0.9 | 0.9 | 0.00 | 0.00 | 0.00 | 62 | 1013.9 |
| 20260509082113 | 51 | 198 | 0.0 | 0.9 | 0.00 | 0.00 | 0.00 | 62 | 1014.0 |
| 20260509081610 | 51 | 198 | 0.0 | 0.0 | 0.00 | 0.00 | 0.00 | 62 | 1014.1 |
| 20260509081107 | 51 | 222 | 0.9 | 1.7 | 0.00 | 0.00 | 0.00 | 62 | 1014.0 |
| 20260509080605 | 51 | 222 | 0.9 | 1.7 | 0.00 | 0.00 | 0.00 | 62 | 1013.8 |
| 20260509080103 | 51 | 222 | 0.0 | 0.0 | 0.00 | 0.00 | 0.00 | 62 | 1013.9 |
| 20260509075601 | 51 | 222 | 0.0 | 0.0 | 0.00 | 0.00 | 0.00 | 62 | 1014.1 |
| 20260509075059 | 51 | 222 | 0.0 | 0.9 | 0.00 | 0.00 | 0.00 | 62 | 1014.1 |
| 20260509074555 | 51 | 222 | 0.9 | 1.7 | 0.00 | 0.00 | 0.00 | 62 | 1013.9 |
| 20260509074052 | 51 | 222 | 0.0 | 1.7 | 0.00 | 0.00 | 0.00 | 62 | 1014.1 |
| 20260509073548 | 51 | 223 | 0.0 | 1.7 | 0.00 | 0.00 | 0.00 | 63 | 1014.0 |
| 20260509073044 | 50 | 224 | 0.0 | 0.9 | 0.00 | 0.00 | 0.00 | 63 | 1014.1 |
| 20260509072540 | 50 | 224 | 0.9 | 1.7 | 0.00 | 0.00 | 0.00 | 63 | 1014.3 |
| 20260509072038 | 50 | 224 | 0.0 | 0.9 | 0.00 | 0.00 | 0.00 | 63 | 1014.2 |
| 20260509071534 | 50 | 224 | 0.9 | 1.7 | 0.00 | 0.00 | 0.00 | 62 | 1014.3 |
| 20260509071032 | 50 | 223 | 0.9 | 2.6 | 0.00 | 0.00 | 0.00 | 62 | 1014.4 |
| 20260509070529 | 50 | 230 | 0.9 | 1.7 | 0.00 | 0.00 | 0.00 | 63 | 1014.2 |
| 20260509070025 | 50 | 230 | 0.9 | 1.7 | 0.00 | 0.00 | 0.00 | 63 | 1014.3 |
| 20260509065520 | 50 | 230 | 0.0 | 0.9 | 0.00 | 0.00 | 0.00 | 63 | 1014.4 |
| 20260509065017 | 50 | 230 | 0.0 | 1.7 | 0.00 | 0.00 | 0.00 | 62 | 1014.3 |
| 20260509064515 | 50 | 230 | 0.9 | 0.9 | 0.00 | 0.00 | 0.00 | 62 | 1014.4 |
| 20260509064013 | 50 | 237 | 0.9 | 2.6 | 0.00 | 0.00 | 0.00 | 62 | 1014.5 |
| 20260509063508 | 50 | 213 | 0.0 | 1.7 | 0.00 | 0.00 | 0.00 | 63 | 1014.5 |
| 20260509063005 | 50 | 214 | 0.0 | 0.0 | 0.00 | 0.00 | 0.00 | 63 | 1014.4 |
| 20260509062502 | 50 | 214 | 0.9 | 1.7 | 0.00 | 0.00 | 0.00 | 63 | 1014.7 |
| 20260509062000 | 50 | 223 | 0.9 | 1.7 | 0.00 | 0.00 | 0.00 | 63 | 1014.7 |
| 20260509061457 | 49 | 223 | 0.9 | 2.6 | 0.00 | 0.00 | 0.00 | 64 | 1014.6 |
| 20260509060954 | 49 | 244 | 1.7 | 1.7 | 0.00 | 0.00 | 0.00 | 65 | 1014.5 |
| 20260509060452 | 49 | 244 | 0.9 | 0.9 | 0.00 | 0.00 | 0.00 | 65 | 1014.7 |
| 20260509055947 | 49 | 244 | 0.9 | 0.9 | 0.00 | 0.00 | 0.00 | 65 | 1014.5 |
| 20260509055442 | 49 | 244 | 0.9 | 0.9 | 0.00 | 0.00 | 0.00 | 65 | 1014.5 |
| 20260509054939 | 49 | 244 | 0.0 | 1.7 | 0.00 | 0.00 | 0.00 | 64 | 1014.6 |
| 20260509054436 | 50 | 244 | 0.9 | 1.7 | 0.00 | 0.00 | 0.00 | 64 | 1015.0 |
| 20260509053934 | 50 | 244 | 0.9 | 0.9 | 0.00 | 0.00 | 0.00 | 63 | 1014.7 |
| 20260509053432 | 50 | 244 | 0.9 | 0.9 | 0.00 | 0.00 | 0.00 | 63 | 1014.7 |
| 20260509052929 | 51 | 244 | 0.9 | 0.9 | 0.00 | 0.00 | 0.00 | 62 | 1015.0 |
| 20260509052426 | 51 | 244 | 0.9 | 0.9 | 0.00 | 0.00 | 0.00 | 62 | 1014.8 |
| 20260509051924 | 51 | 244 | 0.9 | 0.9 | 0.00 | 0.00 | 0.00 | 62 | 1014.8 |
| 20260509051422 | 51 | 244 | 0.0 | 0.0 | 0.00 | 0.00 | 0.00 | 62 | 1014.8 |
| 20260509050918 | 51 | 244 | 0.0 | 0.0 | 0.00 | 0.00 | 0.00 | 61 | 1014.8 |
| 20260509050415 | 51 | 244 | 0.0 | 0.0 | 0.00 | 0.00 | 0.00 | 61 | 1014.8 |
| 20260509045912 | 51 | 244 | 0.0 | 0.0 | 0.00 | 0.00 | 0.00 | 60 | 1014.8 |
| 20260509045409 | 51 | 244 | 0.0 | 0.0 | 0.00 | 0.00 | 0.00 | 59 | 1015.1 |
| 20260509044906 | 51 | 244 | 0.0 | 0.0 | 0.00 | 0.00 | 0.00 | 58 | 1015.0 |
| 20260509044404 | 52 | 244 | 0.0 | 0.0 | 0.00 | 0.00 | 0.00 | 57 | 1015.3 |
| 20260509043900 | 53 | 244 | 0.0 | 0.9 | 0.00 | 0.00 | 0.00 | 56 | 1015.0 |
| 20260509043356 | 53 | 244 | 0.0 | 0.9 | 0.00 | 0.00 | 0.00 | 56 | 1015.0 |
| 20260509042852 | 53 | 244 | 0.0 | 0.9 | 0.00 | 0.00 | 0.00 | 56 | 1015.0 |
| 20260509042349 | 53 | 244 | 0.9 | 0.9 | 0.00 | 0.00 | 0.00 | 55 | 1014.8 |
| 20260509041845 | 53 | 244 | 0.0 | 0.0 | 0.00 | 0.00 | 0.00 | 55 | 1014.6 |
| 20260509041342 | 53 | 244 | 0.9 | 0.9 | 0.00 | 0.00 | 0.00 | 55 | 1014.8 |
| 20260509040841 | 53 | 244 | 0.0 | 0.0 | 0.00 | 0.00 | 0.00 | 55 | 1014.8 |
| 20260509040338 | 53 | 244 | 0.0 | 1.7 | 0.00 | 0.00 | 0.00 | 55 | 1014.8 |
| 20260509035835 | 53 | 244 | 0.9 | 0.9 | 0.00 | 0.00 | 0.00 | 55 | 1014.7 |
| 20260509035332 | 53 | 244 | 0.9 | 0.9 | 0.00 | 0.00 | 0.00 | 55 | 1014.7 |
| 20260509034828 | 53 | 244 | 0.9 | 0.9 | 0.00 | 0.00 | 0.00 | 54 | 1014.6 |
| 20260509034326 | 53 | 244 | 0.9 | 0.9 | 0.00 | 0.00 | 0.00 | 55 | 1014.5 |